START_TIME,STEP,MOV.,H8,t_acc.,H43,t_acc.,M25,t_acc.,H9,t_acc.
1979-07-28 21:00:28.660 ,0,0,0.,12.0,0.,12.0,0.,12.0,0.,12.0
1979-07-28 21:00:40.660 ,0,0,0.,12.0,0.,12.0,0.,12.0,0.,12.0
1979-07-28 21:00:52.660 ,0,0,0.,12.0,0.,12.0,0.,12.0,0.,12.0
1979-07-28 21:01:04.660 ,0,0,0.,12.0,0.,12.0,0.,12.0,0.,12.0
1979-07-28 21:01:16.660 ,0,0,0.,12.0,0.,12.0,0.,12.0,0.,12.0
1979-07-28 21:01:28.660 ,0,0,0.,12.0,0.,12.0,0.,12.0,0.,12.0
1979-07-28 21:01:40.660 ,1,0,0.,12.0,0.,12.0,0.,12.0,0.,12.0
1979-07-28 21:01:52.660 ,1,0,0.,12.0,0.,12.0,0.,12.0,0.,12.0
1979-07-28 21:02:04.660 ,1,0,0.,12.0,0.,12.0,0.,12.0,0.,12.0
1979-07-28 21:02:16.660 ,1,0,0.,12.0,0.,12.0,0.,12.0,0.,12.0
1979-07-28 21:02:28.660 ,2,0,0.,12.0,0.,12.0,0.,12.0,0.,12.0
1979-07-28 21:02:40.660 ,2,0,0.,12.0,0.,12.0,0.,12.0,0.,12.0
1979-07-28 21:02:52.660 ,2,0,0.,12.0,0.,12.0,0.,12.0,0.,12.0
1979-07-28 21:03:04.660 ,2,0,0.,12.0,0.,12.0,0.,12.0,0.,12.0
1979-07-28 21:03:16.660 ,3,0,0.,12.0,0.,12.0,0.,12.0,0.,12.0
1979-07-28 21:03:28.660 ,3,0,0.,12.0,0.,12.0,0.,12.0,0.,12.0
1979-07-28 21:03:40.660 ,3,0,0.,12.0,0.,12.0,0.,12.0,0.,12.0
1979-07-28 21:03:52.660 ,3,0,0.,12.0,0.,12.0,0.,12.0,0.,12.0
1979-07-28 21:04:04.660 ,4,0,0.,12.0,0.,12.0,0.,12.0,0.,12.0
1979-07-28 21:04:16.660 ,4,0,0.,12.0,0.,12.0,0.,12.0,0.,12.0
1979-07-28 21:04:28.660 ,4,0,0.,12.0,0.,12.0,0.,12.0,0.,12.0
1979-07-28 21:04:40.660 ,4,0,0.,12.0,0.,12.0,0.,12.0,0.,12.0
1979-07-28 21:04:52.660 ,5,0,0.,12.0,0.,12.0,0.,12.0,0.,12.0
1979-07-28 21:05:04.660 ,5,0,0.,12.0,0.,12.0,0.,12.0,0.,12.0
1979-07-28 21:05:16.660 ,5,0,0.,12.0,0.,12.0,0.,12.0,0.,12.0
1979-07-28 21:05:28.660 ,5,0,0.,12.0,0.,12.0,0.,12.0,0.,12.0
1979-07-28 21:05:40.660 ,6,0,0.,12.0,0.,12.0,0.,12.0,0.,12.0
1979-07-28 21:05:52.660 ,6,0,0.,12.0,0.,12.0,0.,12.0,0.,12.0
1979-07-28 21:06:04.660 ,6,0,0.,12.0,0.,12.0,0.,12.0,0.,12.0
1979-07-28 21:06:16.660 ,6,0,0.,12.0,0.,12.0,0.,12.0,0.,12.0
1979-07-28 21:06:28.660 ,7,0,0.,12.0,0.,12.0,0.,12.0,0.,12.0
1979-07-28 21:06:40.660 ,7,0,0.,12.0,0.,12.0,0.,12.0,0.,12.0
1979-07-28 21:06:52.660 ,7,0,0.,12.0,0.,12.0,0.,12.0,0.,12.0
1979-07-28 21:07:04.660 ,7,0,0.,12.0,0.,12.0,0.,12.0,0.,12.0
1979-07-28 21:07:16.660 ,3,1,0.,12.0,0.,12.0,0.,12.0,0.,12.0
1979-07-28 21:07:28.660 ,3,1,0.,12.0,0.,12.0,0.,12.0,0.,12.0
1979-07-28 21:07:40.660 ,0,1,0.,12.0,0.,12.0,0.,12.0,0.,12.0
1979-07-28 21:07:52.660 ,0,1,0.,12.0,0.,12.0,0.,12.0,0.,12.0
1979-07-28 21:08:04.660 ,4,1,0.,12.0,0.,12.0,0.,12.0,0.,12.0
1979-07-28 21:08:16.660 ,4,1,0.,12.0,0.,12.0,0.,12.0,0.,12.0
1979-07-28 21:08:28.660 ,7,1,0.,12.0,0.,12.0,0.,12.0,0.,12.0
1979-07-28 21:08:40.660 ,7,1,0.,12.0,0.,12.0,0.,12.0,0.,12.0
1979-07-28 21:08:52.660 ,3,1,0.,12.0,0.,12.0,0.,12.0,0.,12.0
1979-07-28 21:09:04.660 ,3,1,0.,12.0,0.,12.0,0.,12.0,0.,12.0
1979-07-28 21:09:16.660 ,0,1,0.,12.0,0.,12.0,0.,12.0,0.,12.0
1979-07-28 21:09:28.660 ,0,1,0.,12.0,0.,12.0,0.,12.0,0.,12.0
1979-07-28 21:09:40.660 ,4,1,0.,12.0,0.,12.0,0.,12.0,0.,12.0
1979-07-28 21:09:52.660 ,4,1,0.,12.0,0.,12.0,0.,12.0,0.,12.0
1979-07-28 21:10:04.660 ,7,1,0.,12.0,0.,12.0,0.,12.0,0.,12.0
1979-07-28 21:10:16.660 ,7,1,0.,12.0,0.,12.0,0.,12.0,0.,12.0
1979-07-28 21:10:28.660 ,3,1,0.,12.0,0.,12.0,0.,12.0,0.,12.0
1979-07-28 21:10:40.660 ,3,1,0.,12.0,0.,12.0,0.,12.0,0.,12.0
1979-07-28 21:10:52.660 ,0,1,0.,12.0,0.,12.0,0.,12.0,0.,12.0
1979-07-28 21:11:04.660 ,0,1,0.,12.0,0.,12.0,0.,12.0,0.,12.0
1979-07-28 21:11:16.660 ,4,1,0.,12.0,0.,12.0,0.,12.0,0.,12.0
1979-07-28 21:11:28.660 ,4,1,0.,12.0,0.,12.0,0.,12.0,0.,12.0
1979-07-28 21:11:40.660 ,7,1,0.,12.0,0.,12.0,0.,12.0,0.,12.0
1979-07-28 21:11:52.660 ,7,1,0.,12.0,0.,12.0,0.,12.0,0.,12.0
1979-07-28 21:12:04.660 ,3,1,0.,12.0,0.,12.0,0.,12.0,0.,12.0
1979-07-28 21:12:16.660 ,3,1,0.,12.0,0.,12.0,0.,12.0,0.,12.0
1979-07-28 21:12:28.660 ,0,1,0.,12.0,0.,12.0,0.,12.0,0.,12.0
1979-07-28 21:12:40.660 ,0,1,0.,12.0,0.,12.0,0.,12.0,0.,12.0
1979-07-28 21:12:52.660 ,4,1,0.,12.0,0.,12.0,0.,12.0,0.,12.0
1979-07-28 21:13:04.660 ,4,1,0.,12.0,0.,12.0,0.,12.0,0.,12.0
1979-07-28 21:13:16.660 ,7,1,0.,12.0,0.,12.0,0.,12.0,0.,12.0
1979-07-28 21:13:28.660 ,7,1,0.,12.0,0.,12.0,0.,12.0,0.,12.0
1979-07-28 21:13:40.660 ,3,1,0.,12.0,0.,12.0,0.,12.0,0.,12.0
1979-07-28 21:13:52.660 ,3,1,0.,12.0,0.,12.0,0.,12.0,0.,12.0
1979-07-28 21:14:04.660 ,0,1,0.,12.0,0.,12.0,0.,12.0,0.,12.0
1979-07-28 21:14:16.660 ,0,1,0.,12.0,0.,12.0,0.,12.0,0.,12.0
1979-07-28 21:14:28.660 ,0,0,0.,12.0,0.,12.0,0.,12.0,0.,12.0
1979-07-28 21:14:40.660 ,0,0,0.,12.0,0.,12.0,0.,12.0,0.,12.0
1979-07-28 21:14:52.660 ,0,0,0.,12.0,0.,12.0,0.,12.0,0.,12.0
1979-07-28 21:15:04.660 ,0,0,0.,12.0,0.,12.0,0.,12.0,0.,12.0
1979-07-28 21:15:16.660 ,3,1,0.,12.0,0.,12.0,0.,12.0,0.,12.0
1979-07-28 21:15:28.660 ,3,1,0.,12.0,0.,12.0,0.,12.0,0.,12.0
1979-07-28 21:15:40.660 ,0,1,0.,12.0,0.,12.0,0.,12.0,0.,12.0
1979-07-28 21:15:52.660 ,0,1,0.,12.0,0.,12.0,0.,12.0,0.,12.0
1979-07-28 21:16:04.660 ,4,1,0.,12.0,0.,12.0,0.,12.0,0.,12.0
1979-07-28 21:16:16.660 ,4,1,0.,12.0,0.,12.0,0.,12.0,0.,12.0
1979-07-28 21:16:28.660 ,7,1,0.,12.0,0.,12.0,0.,12.0,0.,12.0
1979-07-28 21:16:40.660 ,7,1,0.,12.0,0.,12.0,0.,12.0,0.,12.0
1979-07-28 21:16:52.660 ,3,1,0.,12.0,0.,12.0,0.,12.0,0.,12.0
1979-07-28 21:17:04.660 ,3,1,0.,12.0,0.,12.0,0.,12.0,0.,12.0
1979-07-28 21:17:16.660 ,0,1,0.,12.0,0.,12.0,0.,12.0,0.,12.0
1979-07-28 21:17:28.660 ,0,1,0.,12.0,0.,12.0,0.,12.0,0.,12.0
1979-07-28 21:17:40.660 ,0,0,0.,12.0,0.,12.0,0.,12.0,0.,12.0
1979-07-28 21:17:52.660 ,0,0,0.,12.0,0.,12.0,0.,12.0,0.,12.0
1979-07-28 21:18:04.660 ,0,0,0.,12.0,0.,12.0,0.,12.0,0.,12.0
1979-07-28 21:18:16.660 ,0,0,0.,12.0,0.,12.0,0.,12.0,0.,12.0
1979-07-28 21:18:28.660 ,5,0,0.,12.0,0.,12.0,0.,12.0,0.,12.0
1979-07-28 21:18:40.660 ,5,0,0.,12.0,0.,12.0,0.,12.0,0.,12.0
1979-07-28 21:18:52.660 ,5,0,0.,12.0,0.,12.0,0.,12.0,0.,12.0
1979-07-28 21:19:04.660 ,5,0,0.,12.0,0.,12.0,0.,12.0,0.,12.0
1979-07-28 21:19:16.660 ,4,0,0.,12.0,0.,12.0,0.,12.0,0.,12.0
1979-07-28 21:19:28.660 ,4,0,0.,12.0,0.,12.0,0.,12.0,0.,12.0
1979-07-28 21:19:40.660 ,4,0,0.,12.0,0.,12.0,0.,12.0,0.,12.0
1979-07-28 21:19:52.660 ,4,0,0.,12.0,0.,12.0,0.,12.0,0.,12.0
1979-07-28 21:20:04.660 ,3,0,0.,12.0,0.,12.0,0.,12.0,0.,12.0
1979-07-28 21:20:16.660 ,3,0,0.,12.0,0.,12.0,0.,12.0,0.,12.0
1979-07-28 21:20:28.660 ,3,0,1.,12.0,0.,12.0,0.,12.0,0.,12.0
1979-07-28 21:20:40.660 ,3,0,0.,12.0,0.,12.0,0.,12.0,0.,12.0
1979-07-28 21:20:52.660 ,2,0,0.,12.0,0.,12.0,0.,12.0,0.,12.0
1979-07-28 21:21:04.660 ,2,0,0.,12.0,0.,12.0,0.,12.0,0.,12.0
1979-07-28 21:21:16.660 ,2,0,0.,12.0,0.,12.0,0.,12.0,0.,12.0
1979-07-28 21:21:28.660 ,2,0,0.,12.0,0.,12.0,0.,12.0,0.,12.0
1979-07-28 21:21:40.660 ,1,0,0.,12.0,0.,12.0,0.,12.0,0.,12.0
1979-07-28 21:21:52.660 ,1,0,0.,12.0,0.,12.0,0.,12.0,0.,12.0
1979-07-28 21:22:04.660 ,1,0,0.,12.0,0.,12.0,0.,12.0,0.,12.0
1979-07-28 21:22:16.660 ,1,0,0.,12.0,0.,12.0,0.,12.0,0.,12.0
1979-07-28 21:22:28.660 ,0,0,0.,12.0,0.,12.0,0.,12.0,0.,12.0
1979-07-28 21:22:40.660 ,0,0,0.,12.0,0.,12.0,0.,12.0,0.,12.0
1979-07-28 21:22:52.660 ,0,0,0.,12.0,0.,12.0,0.,12.0,0.,12.0
1979-07-28 21:23:04.660 ,0,0,0.,12.0,0.,12.0,0.,12.0,0.,12.0
1979-07-28 21:23:16.660 ,0,0,0.,12.0,0.,12.0,0.,12.0,0.,12.0
1979-07-28 21:23:28.660 ,0,0,0.,12.0,0.,12.0,0.,12.0,0.,12.0
1979-07-28 21:23:40.660 ,0,0,0.,12.0,0.,12.0,0.,12.0,0.,12.0
1979-07-28 21:23:52.660 ,0,0,0.,12.0,0.,12.0,0.,12.0,0.,12.0
1979-07-28 21:24:04.660 ,1,0,0.,12.0,0.,12.0,0.,12.0,0.,12.0
1979-07-28 21:24:16.660 ,1,0,0.,12.0,0.,12.0,0.,12.0,0.,12.0
1979-07-28 21:24:28.660 ,1,0,0.,12.0,0.,12.0,0.,12.0,0.,12.0
1979-07-28 21:24:40.660 ,1,0,0.,12.0,0.,12.0,0.,12.0,0.,12.0
1979-07-28 21:24:52.660 ,2,0,0.,12.0,0.,12.0,0.,12.0,0.,12.0
1979-07-28 21:25:04.660 ,2,0,0.,12.0,0.,12.0,0.,12.0,0.,12.0
1979-07-28 21:25:16.660 ,2,0,0.,12.0,0.,12.0,0.,12.0,0.,12.0
1979-07-28 21:25:28.660 ,2,0,0.,12.0,0.,12.0,0.,12.0,0.,12.0
1979-07-28 21:25:40.660 ,3,0,0.,12.0,0.,12.0,0.,12.0,0.,12.0
1979-07-28 21:25:52.660 ,3,0,0.,12.0,0.,12.0,0.,12.0,0.,12.0
1979-07-28 21:26:04.660 ,3,0,0.,12.0,0.,12.0,0.,12.0,0.,12.0
1979-07-28 21:26:16.660 ,3,0,0.,12.0,0.,12.0,0.,12.0,0.,12.0
1979-07-28 21:26:28.660 ,4,0,0.,12.0,0.,12.0,0.,12.0,0.,12.0
1979-07-28 21:26:40.660 ,4,0,0.,12.0,0.,12.0,0.,12.0,0.,12.0
1979-07-28 21:26:52.660 ,4,0,0.,12.0,0.,12.0,0.,12.0,0.,12.0
1979-07-28 21:27:04.660 ,4,0,0.,12.0,0.,12.0,0.,12.0,0.,12.0
1979-07-28 21:27:16.660 ,5,0,0.,12.0,0.,12.0,0.,12.0,0.,12.0
1979-07-28 21:27:28.660 ,5,0,0.,12.0,0.,12.0,0.,12.0,0.,12.0
1979-07-28 21:27:40.660 ,5,0,0.,12.0,0.,12.0,0.,12.0,0.,12.0
1979-07-28 21:27:52.660 ,5,0,0.,12.0,0.,12.0,0.,12.0,0.,12.0
1979-07-28 21:28:04.660 ,6,0,0.,12.0,0.,12.0,0.,12.0,0.,12.0
1979-07-28 21:28:16.660 ,6,0,0.,12.0,0.,12.0,0.,12.0,0.,12.0
1979-07-28 21:28:28.660 ,6,0,0.,12.0,0.,12.0,0.,12.0,0.,12.0
1979-07-28 21:28:40.660 ,6,0,0.,12.0,0.,12.0,0.,12.0,0.,12.0
1979-07-28 21:28:52.660 ,7,0,0.,12.0,0.,12.0,0.,12.0,0.,12.0
1979-07-28 21:29:04.660 ,7,0,0.,12.0,0.,12.0,0.,12.0,0.,12.0
1979-07-28 21:29:16.660 ,7,0,0.,12.0,0.,12.0,0.,12.0,0.,12.0
1979-07-28 21:29:28.660 ,7,0,0.,12.0,0.,12.0,0.,12.0,0.,12.0
1979-07-28 21:29:40.660 ,7,0,0.,12.0,0.,12.0,0.,12.0,0.,12.0
1979-07-28 21:29:52.660 ,7,0,0.,12.0,0.,12.0,0.,12.0,0.,12.0
1979-07-28 21:30:04.660 ,7,0,0.,12.0,0.,12.0,0.,12.0,0.,12.0
1979-07-28 21:30:16.660 ,7,0,0.,12.0,0.,12.0,0.,12.0,0.,12.0
1979-07-28 21:30:28.660 ,6,0,0.,12.0,0.,12.0,0.,12.0,0.,12.0
1979-07-28 21:30:40.660 ,6,0,0.,12.0,0.,12.0,0.,12.0,0.,12.0
1979-07-28 21:30:52.660 ,6,0,0.,12.0,0.,12.0,0.,12.0,0.,12.0
1979-07-28 21:31:04.660 ,6,0,0.,12.0,0.,12.0,0.,12.0,0.,12.0
1979-07-28 21:31:16.660 ,5,0,0.,12.0,0.,12.0,0.,12.0,0.,12.0
1979-07-28 21:31:28.660 ,5,0,0.,12.0,0.,12.0,0.,12.0,0.,12.0
1979-07-28 21:31:40.660 ,5,0,0.,12.0,0.,12.0,0.,12.0,0.,12.0
1979-07-28 21:31:52.660 ,5,0,0.,12.0,0.,12.0,0.,12.0,0.,12.0
1979-07-28 21:32:04.660 ,4,0,0.,12.0,0.,12.0,1.,12.0,0.,12.0
1979-07-28 21:32:16.660 ,4,0,0.,12.0,0.,12.0,0.,12.0,0.,12.0
1979-07-28 21:32:28.660 ,4,0,0.,12.0,0.,12.0,0.,12.0,0.,12.0
1979-07-28 21:32:40.660 ,4,0,0.,12.0,0.,12.0,0.,12.0,0.,12.0
1979-07-28 21:32:52.660 ,3,0,0.,12.0,0.,12.0,0.,12.0,0.,12.0
1979-07-28 21:33:04.660 ,3,0,0.,12.0,0.,12.0,0.,12.0,0.,12.0
1979-07-28 21:33:16.660 ,3,0,0.,12.0,0.,12.0,0.,12.0,0.,12.0
1979-07-28 21:33:28.660 ,3,0,0.,12.0,0.,12.0,0.,12.0,0.,12.0
1979-07-28 21:33:40.660 ,2,0,0.,12.0,0.,12.0,0.,12.0,0.,12.0
1979-07-28 21:33:52.660 ,2,0,0.,12.0,0.,12.0,0.,12.0,0.,12.0
1979-07-28 21:34:04.660 ,2,0,0.,12.0,0.,12.0,0.,12.0,0.,12.0
1979-07-28 21:34:16.660 ,2,0,0.,12.0,0.,12.0,0.,12.0,0.,12.0
1979-07-28 21:34:28.660 ,1,0,0.,12.0,0.,12.0,0.,12.0,0.,12.0
1979-07-28 21:34:40.660 ,1,0,0.,12.0,0.,12.0,0.,12.0,0.,12.0
1979-07-28 21:34:52.660 ,1,0,0.,12.0,0.,12.0,0.,12.0,0.,12.0
1979-07-28 21:35:04.660 ,1,0,0.,12.0,0.,12.0,0.,12.0,0.,12.0
1979-07-28 21:35:16.660 ,0,0,0.,12.0,0.,12.0,0.,12.0,0.,12.0
1979-07-28 21:35:28.660 ,0,0,0.,12.0,0.,12.0,0.,12.0,0.,12.0
1979-07-28 21:35:40.660 ,0,0,0.,12.0,0.,12.0,0.,12.0,0.,12.0
1979-07-28 21:35:52.660 ,0,0,0.,12.0,0.,12.0,0.,12.0,0.,12.0
1979-07-28 21:36:04.660 ,0,0,0.,12.0,0.,12.0,0.,12.0,0.,12.0
1979-07-28 21:36:16.660 ,0,0,0.,12.0,0.,12.0,0.,12.0,0.,12.0
1979-07-28 21:36:28.660 ,0,0,0.,12.0,0.,12.0,0.,12.0,0.,12.0
1979-07-28 21:36:40.660 ,0,0,0.,12.0,0.,12.0,0.,12.0,0.,12.0
1979-07-28 21:36:52.660 ,1,0,0.,12.0,0.,12.0,0.,12.0,0.,12.0
1979-07-28 21:37:04.660 ,1,0,0.,12.0,0.,12.0,0.,12.0,0.,12.0
1979-07-28 21:37:16.660 ,1,0,0.,12.0,0.,12.0,0.,12.0,0.,12.0
1979-07-28 21:37:28.660 ,1,0,0.,12.0,0.,12.0,0.,12.0,0.,12.0
1979-07-28 21:37:40.660 ,2,0,0.,12.0,0.,12.0,0.,12.0,0.,12.0
1979-07-28 21:37:52.660 ,2,0,0.,12.0,0.,12.0,0.,12.0,0.,12.0
1979-07-28 21:38:04.660 ,2,0,0.,12.0,0.,12.0,0.,12.0,0.,12.0
1979-07-28 21:38:16.660 ,2,0,0.,12.0,0.,12.0,0.,12.0,0.,12.0
1979-07-28 21:38:28.660 ,3,0,0.,12.0,0.,12.0,0.,12.0,0.,12.0
1979-07-28 21:38:40.660 ,3,0,0.,12.0,0.,12.0,0.,12.0,0.,12.0
1979-07-28 21:38:52.660 ,3,0,0.,12.0,0.,12.0,0.,12.0,0.,12.0
1979-07-28 21:39:04.660 ,3,0,0.,12.0,0.,12.0,0.,12.0,0.,12.0
1979-07-28 21:39:16.660 ,4,0,0.,12.0,0.,12.0,0.,12.0,0.,12.0
1979-07-28 21:39:28.660 ,4,0,0.,12.0,0.,12.0,0.,12.0,0.,12.0
1979-07-28 21:39:40.660 ,4,0,0.,12.0,0.,12.0,0.,12.0,0.,12.0
1979-07-28 21:39:52.660 ,4,0,0.,12.0,0.,12.0,0.,12.0,0.,12.0
1979-07-28 21:40:04.660 ,5,0,0.,12.0,0.,12.0,0.,12.0,0.,12.0
1979-07-28 21:40:16.660 ,5,0,0.,12.0,0.,12.0,0.,12.0,0.,12.0
1979-07-28 21:40:28.660 ,5,0,0.,12.0,0.,12.0,0.,12.0,0.,12.0
1979-07-28 21:40:40.660 ,5,0,0.,12.0,0.,12.0,0.,12.0,0.,12.0
1979-07-28 21:40:52.660 ,6,0,0.,12.0,0.,12.0,0.,12.0,0.,12.0
1979-07-28 21:41:04.660 ,6,0,0.,12.0,0.,12.0,0.,12.0,0.,12.0
1979-07-28 21:41:16.660 ,6,0,0.,12.0,0.,12.0,0.,12.0,0.,12.0
1979-07-28 21:41:28.660 ,6,0,0.,12.0,0.,12.0,0.,12.0,0.,12.0
1979-07-28 21:41:40.660 ,7,0,0.,12.0,0.,12.0,0.,12.0,0.,12.0
1979-07-28 21:41:52.660 ,7,0,0.,12.0,0.,12.0,0.,12.0,0.,12.0
1979-07-28 21:42:04.660 ,7,0,0.,12.0,0.,12.0,0.,12.0,0.,12.0
1979-07-28 21:42:16.660 ,7,0,0.,12.0,0.,12.0,0.,12.0,0.,12.0
1979-07-28 21:42:28.660 ,7,0,0.,12.0,0.,12.0,0.,12.0,0.,12.0
1979-07-28 21:42:40.660 ,7,0,0.,12.0,0.,12.0,0.,12.0,0.,12.0
1979-07-28 21:42:52.660 ,7,0,0.,12.0,0.,12.0,0.,12.0,0.,12.0
1979-07-28 21:43:04.660 ,7,0,0.,12.0,0.,12.0,0.,12.0,0.,12.0
1979-07-28 21:43:16.660 ,6,0,0.,12.0,0.,12.0,0.,12.0,0.,12.0
1979-07-28 21:43:28.660 ,6,0,0.,12.0,0.,12.0,0.,12.0,0.,12.0
1979-07-28 21:43:40.660 ,6,0,0.,12.0,0.,12.0,0.,12.0,0.,12.0
1979-07-28 21:43:52.660 ,6,0,0.,12.0,0.,12.0,0.,12.0,0.,12.0
1979-07-28 21:44:04.660 ,5,0,0.,12.0,0.,12.0,0.,12.0,0.,12.0
1979-07-28 21:44:16.660 ,5,0,0.,12.0,0.,12.0,0.,12.0,0.,12.0
1979-07-28 21:44:28.660 ,5,0,0.,12.0,0.,12.0,0.,12.0,0.,12.0
1979-07-28 21:44:40.660 ,5,0,0.,12.0,0.,12.0,0.,12.0,0.,12.0
1979-07-28 21:44:52.660 ,4,0,0.,12.0,0.,12.0,0.,12.0,0.,12.0
1979-07-28 21:45:04.660 ,4,0,0.,12.0,0.,12.0,0.,12.0,0.,12.0
1979-07-28 21:45:16.660 ,4,0,0.,12.0,0.,12.0,0.,12.0,0.,12.0
1979-07-28 21:45:28.660 ,4,0,0.,12.0,0.,12.0,0.,12.0,0.,12.0
1979-07-28 21:45:40.660 ,3,0,0.,12.0,0.,12.0,0.,12.0,0.,12.0
1979-07-28 21:45:52.660 ,3,0,0.,12.0,0.,12.0,0.,12.0,0.,12.0
1979-07-28 21:46:04.660 ,3,0,0.,12.0,0.,12.0,0.,12.0,0.,12.0
1979-07-28 21:46:16.660 ,3,0,0.,12.0,0.,12.0,0.,12.0,0.,12.0
1979-07-28 21:46:28.660 ,2,0,0.,12.0,0.,12.0,0.,12.0,0.,12.0
1979-07-28 21:46:40.660 ,2,0,0.,12.0,0.,12.0,0.,12.0,0.,12.0
1979-07-28 21:46:52.660 ,2,0,0.,12.0,0.,12.0,0.,12.0,0.,12.0
1979-07-28 21:47:04.660 ,2,0,0.,12.0,0.,12.0,0.,12.0,0.,12.0
1979-07-28 21:47:16.660 ,1,0,0.,12.0,0.,12.0,0.,12.0,0.,12.0
1979-07-28 21:47:28.660 ,1,0,0.,12.0,0.,12.0,0.,12.0,0.,12.0
1979-07-28 21:47:40.660 ,1,0,0.,12.0,0.,12.0,0.,12.0,0.,12.0
1979-07-28 21:47:52.660 ,1,0,0.,12.0,0.,12.0,0.,12.0,0.,12.0
1979-07-28 21:48:04.660 ,0,0,0.,12.0,0.,12.0,0.,12.0,0.,12.0
1979-07-28 21:48:16.660 ,0,0,0.,12.0,0.,12.0,0.,12.0,0.,12.0
1979-07-28 21:48:28.660 ,0,0,0.,12.0,0.,12.0,0.,12.0,0.,12.0
1979-07-28 21:48:40.660 ,0,0,0.,12.0,0.,12.0,0.,12.0,0.,12.0
1979-07-28 21:48:52.660 ,0,0,0.,12.0,0.,12.0,0.,12.0,0.,12.0
1979-07-28 21:49:04.660 ,0,0,0.,12.0,0.,12.0,0.,12.0,0.,12.0
1979-07-28 21:49:16.660 ,0,0,0.,12.0,0.,12.0,0.,12.0,0.,12.0
1979-07-28 21:49:28.660 ,0,0,0.,12.0,0.,12.0,0.,12.0,0.,12.0
1979-07-28 21:49:40.660 ,1,0,0.,12.0,0.,12.0,0.,12.0,0.,12.0
1979-07-28 21:49:52.660 ,1,0,0.,12.0,0.,12.0,0.,12.0,0.,12.0
1979-07-28 21:50:04.660 ,1,0,0.,12.0,0.,12.0,0.,12.0,0.,12.0
1979-07-28 21:50:16.660 ,1,0,0.,12.0,0.,12.0,0.,12.0,0.,12.0
1979-07-28 21:50:28.660 ,2,0,0.,12.0,0.,12.0,0.,12.0,0.,12.0
1979-07-28 21:50:40.660 ,2,0,0.,12.0,0.,12.0,0.,12.0,0.,12.0
1979-07-28 21:50:52.660 ,2,0,0.,12.0,0.,12.0,0.,12.0,0.,12.0
1979-07-28 21:51:04.660 ,2,0,0.,12.0,0.,12.0,0.,12.0,0.,12.0
1979-07-28 21:51:16.660 ,3,0,0.,12.0,0.,12.0,0.,12.0,0.,12.0
1979-07-28 21:51:28.660 ,3,0,0.,12.0,0.,12.0,0.,12.0,0.,12.0
1979-07-28 21:51:40.660 ,3,0,0.,12.0,0.,12.0,0.,12.0,0.,12.0
1979-07-28 21:51:52.660 ,3,0,0.,12.0,0.,12.0,0.,12.0,0.,12.0
1979-07-28 21:52:04.660 ,4,0,0.,12.0,0.,12.0,0.,12.0,0.,12.0
1979-07-28 21:52:16.660 ,4,0,0.,12.0,0.,12.0,0.,12.0,0.,12.0
1979-07-28 21:52:28.660 ,4,0,0.,12.0,0.,12.0,0.,12.0,0.,12.0
1979-07-28 21:52:40.660 ,4,0,0.,12.0,0.,12.0,0.,12.0,0.,12.0
1979-07-28 21:52:52.660 ,5,0,0.,12.0,0.,12.0,0.,12.0,0.,12.0
1979-07-28 21:53:04.660 ,5,0,0.,12.0,0.,12.0,0.,12.0,0.,12.0
1979-07-28 21:53:16.660 ,5,0,0.,12.0,0.,12.0,0.,12.0,0.,12.0
1979-07-28 21:53:28.660 ,5,0,0.,12.0,0.,12.0,0.,12.0,0.,12.0
1979-07-28 21:53:40.660 ,6,0,0.,12.0,0.,12.0,0.,12.0,0.,12.0
1979-07-28 21:53:52.660 ,6,0,0.,12.0,0.,12.0,0.,12.0,0.,12.0
1979-07-28 21:54:04.660 ,6,0,0.,12.0,0.,12.0,0.,12.0,0.,12.0
1979-07-28 21:54:16.660 ,6,0,0.,12.0,0.,12.0,0.,12.0,0.,12.0
1979-07-28 21:54:28.660 ,7,0,0.,12.0,0.,12.0,0.,12.0,0.,12.0
1979-07-28 21:54:40.660 ,7,0,0.,12.0,0.,12.0,0.,12.0,0.,12.0
1979-07-28 21:54:52.660 ,7,0,0.,12.0,0.,12.0,0.,12.0,0.,12.0
1979-07-28 21:55:04.660 ,7,0,0.,12.0,0.,12.0,0.,12.0,0.,12.0
1979-07-28 21:55:16.660 ,3,1,0.,12.0,0.,12.0,0.,12.0,0.,12.0
1979-07-28 21:55:28.660 ,3,1,0.,12.0,0.,12.0,0.,12.0,0.,12.0
1979-07-28 21:55:40.660 ,0,1,0.,12.0,0.,12.0,0.,12.0,0.,12.0
1979-07-28 21:55:52.660 ,0,1,0.,12.0,0.,12.0,0.,12.0,0.,12.0
1979-07-28 21:56:04.660 ,4,1,0.,12.0,0.,12.0,0.,12.0,0.,12.0
1979-07-28 21:56:16.660 ,4,1,0.,12.0,0.,12.0,0.,12.0,0.,12.0
1979-07-28 21:56:28.660 ,7,1,0.,12.0,0.,12.0,0.,12.0,0.,12.0
1979-07-28 21:56:40.660 ,7,1,0.,12.0,0.,12.0,0.,12.0,0.,12.0
1979-07-28 21:56:52.660 ,3,1,0.,12.0,0.,12.0,0.,12.0,0.,12.0
1979-07-28 21:57:04.660 ,3,1,0.,12.0,0.,12.0,0.,12.0,0.,12.0
1979-07-28 21:57:16.660 ,0,1,0.,12.0,0.,12.0,0.,12.0,0.,12.0
1979-07-28 21:57:28.660 ,0,1,0.,12.0,0.,12.0,0.,12.0,0.,12.0
1979-07-28 21:57:40.660 ,4,1,0.,12.0,0.,12.0,0.,12.0,0.,12.0
1979-07-28 21:57:52.660 ,4,1,0.,12.0,0.,12.0,0.,12.0,0.,12.0
1979-07-28 21:58:04.660 ,7,1,0.,12.0,0.,12.0,0.,12.0,0.,12.0
1979-07-28 21:58:16.660 ,7,1,0.,12.0,0.,12.0,0.,12.0,0.,12.0
1979-07-28 21:58:28.650 ,3,1,0.,12.0,0.,12.0,0.,12.0,0.,12.0
1979-07-28 21:58:40.650 ,3,1,0.,12.0,0.,12.0,0.,12.0,0.,12.0
1979-07-28 21:58:52.650 ,0,1,0.,12.0,0.,12.0,0.,12.0,0.,12.0
1979-07-28 21:59:04.650 ,0,1,0.,12.0,0.,12.0,0.,12.0,0.,12.0
1979-07-28 21:59:16.650 ,4,1,0.,12.0,0.,12.0,0.,12.0,0.,12.0
1979-07-28 21:59:28.650 ,4,1,0.,12.0,0.,12.0,0.,12.0,0.,12.0
1979-07-28 21:59:40.650 ,7,1,0.,12.0,0.,12.0,0.,12.0,0.,12.0
1979-07-28 21:59:52.650 ,7,1,0.,12.0,0.,12.0,0.,12.0,0.,12.0
1979-07-28 22:00:04.650 ,3,1,0.,12.0,0.,12.0,0.,12.0,0.,12.0
1979-07-28 22:00:16.650 ,3,1,0.,12.0,0.,12.0,0.,12.0,0.,12.0
1979-07-28 22:00:28.650 ,0,1,0.,12.0,0.,12.0,0.,12.0,0.,12.0
1979-07-28 22:00:40.650 ,0,1,0.,12.0,0.,12.0,0.,12.0,0.,12.0
1979-07-28 22:00:52.650 ,0,0,0.,12.0,0.,12.0,0.,12.0,0.,12.0
1979-07-28 22:01:04.650 ,0,0,0.,12.0,0.,12.0,0.,12.0,0.,12.0
1979-07-28 22:01:16.650 ,0,0,,0,,0,,0,,0
1979-07-28 22:01:28.650 ,0,0,,0,,0,,0,,0
1979-07-28 22:02:52.650 ,0,0,0.,12.0,0.,12.0,0.,12.0,0.,12.0
1979-07-28 22:03:04.650 ,0,0,0.,12.0,0.,12.0,0.,12.0,0.,12.0
1979-07-28 22:03:16.650 ,3,1,0.,12.0,0.,12.0,0.,12.0,0.,12.0
1979-07-28 22:03:28.650 ,3,1,0.,12.0,0.,12.0,0.,12.0,0.,12.0
1979-07-28 22:03:40.650 ,0,1,0.,12.0,0.,12.0,0.,12.0,0.,12.0
1979-07-28 22:03:52.650 ,0,1,0.,12.0,0.,12.0,0.,12.0,0.,12.0
1979-07-28 22:04:04.650 ,4,1,0.,12.0,0.,12.0,0.,12.0,0.,12.0
1979-07-28 22:04:16.650 ,4,1,0.,12.0,0.,12.0,0.,12.0,0.,12.0
1979-07-28 22:04:28.650 ,7,1,0.,12.0,0.,12.0,0.,12.0,0.,12.0
1979-07-28 22:04:40.650 ,7,1,0.,12.0,0.,12.0,0.,12.0,0.,12.0
1979-07-28 22:04:52.650 ,3,1,0.,12.0,0.,12.0,0.,12.0,0.,12.0
1979-07-28 22:05:04.650 ,3,1,0.,12.0,0.,12.0,0.,12.0,0.,12.0
1979-07-28 22:05:16.650 ,0,1,0.,12.0,0.,12.0,0.,12.0,0.,12.0
1979-07-28 22:05:28.650 ,0,1,0.,12.0,0.,12.0,0.,12.0,0.,12.0
1979-07-28 22:05:40.650 ,0,0,0.,12.0,0.,12.0,0.,12.0,0.,12.0
1979-07-28 22:05:52.650 ,0,0,0.,12.0,0.,12.0,0.,12.0,0.,12.0
1979-07-28 22:06:04.650 ,0,0,0.,12.0,0.,12.0,0.,12.0,0.,12.0
1979-07-28 22:06:16.650 ,0,0,0.,12.0,0.,12.0,0.,12.0,0.,12.0
1979-07-28 22:06:28.650 ,5,0,0.,12.0,0.,12.0,0.,12.0,0.,12.0
1979-07-28 22:06:40.650 ,5,0,0.,12.0,0.,12.0,0.,12.0,0.,12.0
1979-07-28 22:06:52.650 ,5,0,0.,12.0,0.,12.0,0.,12.0,0.,12.0
1979-07-28 22:07:04.650 ,5,0,0.,12.0,0.,12.0,0.,12.0,0.,12.0
1979-07-28 22:07:16.650 ,4,0,0.,12.0,0.,12.0,0.,12.0,0.,12.0
1979-07-28 22:07:28.650 ,4,0,0.,12.0,0.,12.0,0.,12.0,0.,12.0
1979-07-28 22:07:40.650 ,4,0,0.,12.0,0.,12.0,0.,12.0,0.,12.0
1979-07-28 22:07:52.650 ,4,0,0.,12.0,0.,12.0,0.,12.0,0.,12.0
1979-07-28 22:08:04.650 ,3,0,0.,12.0,0.,12.0,0.,12.0,0.,12.0
1979-07-28 22:08:16.650 ,3,0,0.,12.0,0.,12.0,0.,12.0,0.,12.0
1979-07-28 22:08:28.650 ,3,0,0.,12.0,0.,12.0,0.,12.0,0.,12.0
1979-07-28 22:08:40.650 ,3,0,0.,12.0,0.,12.0,0.,12.0,0.,12.0
1979-07-28 22:08:52.650 ,2,0,0.,12.0,0.,12.0,0.,12.0,0.,12.0
1979-07-28 22:09:04.650 ,2,0,0.,12.0,0.,12.0,0.,12.0,0.,12.0
1979-07-28 22:09:16.650 ,2,0,0.,12.0,0.,12.0,0.,12.0,0.,12.0
1979-07-28 22:09:28.650 ,2,0,0.,12.0,0.,12.0,0.,12.0,0.,12.0
1979-07-28 22:09:40.650 ,1,0,0.,12.0,0.,12.0,0.,12.0,0.,12.0
1979-07-28 22:09:52.650 ,1,0,0.,12.0,0.,12.0,0.,12.0,0.,12.0
1979-07-28 22:10:04.650 ,1,0,0.,12.0,0.,12.0,0.,12.0,0.,12.0
1979-07-28 22:10:16.650 ,1,0,0.,12.0,0.,12.0,0.,12.0,0.,12.0
1979-07-28 22:10:28.650 ,0,0,0.,12.0,0.,12.0,0.,12.0,0.,12.0
1979-07-28 22:10:40.650 ,0,0,0.,12.0,0.,12.0,0.,12.0,0.,12.0
1979-07-28 22:10:52.650 ,0,0,0.,12.0,0.,12.0,0.,12.0,0.,12.0
1979-07-28 22:11:04.650 ,0,0,0.,12.0,0.,12.0,0.,12.0,0.,12.0
1979-07-28 22:11:16.650 ,0,0,0.,12.0,0.,12.0,0.,12.0,0.,12.0
1979-07-28 22:11:28.650 ,0,0,0.,12.0,0.,12.0,0.,12.0,0.,12.0
1979-07-28 22:11:40.650 ,0,0,0.,12.0,0.,12.0,0.,12.0,0.,12.0
1979-07-28 22:11:52.650 ,0,0,0.,12.0,0.,12.0,0.,12.0,0.,12.0
1979-07-28 22:12:04.650 ,1,0,0.,12.0,0.,12.0,0.,12.0,0.,12.0
1979-07-28 22:12:16.650 ,1,0,0.,12.0,0.,12.0,0.,12.0,0.,12.0
1979-07-28 22:12:28.650 ,1,0,0.,12.0,0.,12.0,0.,12.0,0.,12.0
1979-07-28 22:12:40.650 ,1,0,0.,12.0,0.,12.0,0.,12.0,0.,12.0
1979-07-28 22:12:52.650 ,2,0,0.,12.0,0.,12.0,0.,12.0,0.,12.0
1979-07-28 22:13:04.650 ,2,0,0.,12.0,0.,12.0,0.,12.0,0.,12.0
1979-07-28 22:13:16.650 ,2,0,0.,12.0,0.,12.0,0.,12.0,0.,12.0
1979-07-28 22:13:28.650 ,2,0,0.,12.0,0.,12.0,0.,12.0,0.,12.0
1979-07-28 22:13:40.650 ,3,0,0.,12.0,0.,12.0,0.,12.0,0.,12.0
1979-07-28 22:13:52.650 ,3,0,0.,12.0,0.,12.0,0.,12.0,0.,12.0
1979-07-28 22:14:04.650 ,3,0,0.,12.0,0.,12.0,0.,12.0,0.,12.0
1979-07-28 22:14:16.650 ,3,0,0.,12.0,0.,12.0,0.,12.0,0.,12.0
1979-07-28 22:14:28.650 ,4,0,0.,12.0,0.,12.0,0.,12.0,0.,12.0
1979-07-28 22:14:40.650 ,4,0,0.,12.0,0.,12.0,0.,12.0,0.,12.0
1979-07-28 22:14:52.650 ,4,0,0.,12.0,0.,12.0,0.,12.0,0.,12.0
1979-07-28 22:15:04.650 ,4,0,0.,12.0,0.,12.0,0.,12.0,0.,12.0
1979-07-28 22:15:16.650 ,5,0,0.,12.0,0.,12.0,0.,12.0,0.,12.0
1979-07-28 22:15:28.650 ,5,0,0.,12.0,0.,12.0,0.,12.0,0.,12.0
1979-07-28 22:15:40.650 ,5,0,0.,12.0,0.,12.0,0.,12.0,0.,12.0
1979-07-28 22:15:52.650 ,5,0,0.,12.0,0.,12.0,0.,12.0,0.,12.0
1979-07-28 22:16:04.650 ,6,0,0.,12.0,0.,12.0,0.,12.0,0.,12.0
1979-07-28 22:16:16.650 ,6,0,0.,12.0,0.,12.0,0.,12.0,0.,12.0
1979-07-28 22:16:28.650 ,6,0,0.,12.0,0.,12.0,0.,12.0,0.,12.0
1979-07-28 22:16:40.650 ,6,0,0.,12.0,0.,12.0,0.,12.0,0.,12.0
1979-07-28 22:16:52.650 ,7,0,0.,12.0,0.,12.0,0.,12.0,0.,12.0
1979-07-28 22:17:04.650 ,7,0,0.,12.0,0.,12.0,0.,12.0,0.,12.0
1979-07-28 22:17:16.650 ,7,0,0.,12.0,0.,12.0,0.,12.0,0.,12.0
1979-07-28 22:17:28.650 ,7,0,0.,12.0,0.,12.0,0.,12.0,0.,12.0
1979-07-28 22:17:40.650 ,7,0,0.,12.0,0.,12.0,0.,12.0,0.,12.0
1979-07-28 22:17:52.650 ,7,0,0.,12.0,0.,12.0,0.,12.0,0.,12.0
1979-07-28 22:18:04.650 ,7,0,0.,12.0,0.,12.0,0.,12.0,0.,12.0
1979-07-28 22:18:16.650 ,7,0,0.,12.0,0.,12.0,0.,12.0,0.,12.0
1979-07-28 22:18:28.650 ,6,0,0.,12.0,0.,12.0,0.,12.0,0.,12.0
1979-07-28 22:18:40.650 ,6,0,0.,12.0,0.,12.0,0.,12.0,0.,12.0